Location: Unspecified
(0.0000°N, 0.0000°E)
Time: 16:37:16
(UTC+00:00)

Vanguard 2 Rocket - Pass Details

Date: 21 November 2019
Orbit: 554 x 3326 km, 32.9° (Epoch: 13 December)

Event Time Altitude Azimuth Distance (km) Brightness Sun altitude
Rises 05:09:02 0° 338° (NNW) 3,904 9.7 -8.6°
Reaches altitude 10° 05:12:23 10° 356° (N) 3,333 9.6 -7.8°
Maximum altitude 05:18:24 20° 40° (NE) 3,311 10.0 -6.4°
Drops below altitude 10° 05:26:48 10° 81° (E) 4,885 11.7 -4.5°
Sets 05:33:18 0° 95° (E) 6,448 13.2 -2.9°
